Location: Newark
(48.5667°N, 7.8167°E)
Time: 11:35:33
(UTC+00:00)

ISS - Pass Details

Date: 23 September 2021
Orbit: 418 x 423 km, 51.6° (Epoch: 19 October)

Event Time Altitude Azimuth Distance (km) Brightness Sun altitude
Rises 19:40:12 0° 279° (W) 2,365 1.3 -22.5°
Reaches altitude 10° 19:42:20 10° 286° (WNW) 1,502 0.1 -22.8°
Enters shadow 19:45:04 42° 330° (NNW) 609 -2.6 -23.2°
